This is the latest recevied weather packets stored in our database for station/object VE3VGJ. If no packets are shown the sender has not sent any weather packets the latest 10 day(s).
| Time | Temp. | Humidity | Pressure | Rain* | Wind** | Luminosity | Snow |
|---|---|---|---|---|---|---|---|
| 1778113940 | 7.22° C | 56% | 1012 hPa | 0 mm | - | 1 W/m² | - |
| 1778113637 | 7.22° C | 55% | 1012 hPa | 0 mm | - | 2 W/m² | - |
| 1778113333 | 7.78° C | 54% | 1011.8 hPa | 0 mm | - | 3 W/m² | - |
| 1778113030 | 7.78° C | 54% | 1011.8 hPa | 0 mm | - | 5 W/m² | - |
| 1778112727 | 7.78° C | 55% | 1011.8 hPa | 0 mm | - | 7 W/m² | - |
| 1778112423 | 7.78° C | 54% | 1011.7 hPa | 0 mm | - | 11 W/m² | - |
| 1778112119 | 8.33° C | 54% | 1011.8 hPa | 0 mm | - | 18 W/m² | - |
| 1778111816 | 7.78° C | 53% | 1011.7 hPa | 0 mm | - | 21 W/m² | - |
| 1778111511 | 7.78° C | 54% | 1011.7 hPa | 0 mm | - | 21 W/m² | - |
| 1778111209 | 8.33° C | 54% | 1011.6 hPa | 0 mm | - | 27 W/m² | - |
| 1778110906 | 8.33° C | 55% | 1011.7 hPa | 0 mm | - | 27 W/m² | - |
| 1778110603 | 8.33° C | 55% | 1011.5 hPa | 0 mm | - | 26 W/m² | - |
| 1778110300 | 8.33° C | 54% | 1011.2 hPa | 0 mm | - | 33 W/m² | - |
| 1778109996 | 8.33° C | 56% | 1011.2 hPa | 0 mm | - | 37 W/m² | - |
| 1778109691 | 8.33° C | 62% | 1011.1 hPa | 0 mm | - | 34 W/m² | - |
| 1778109389 | 8.33° C | 60% | 1011.2 hPa | 0 mm | - | 32 W/m² | - |
| 1778109087 | 8.89° C | 60% | 1011.2 hPa | 0 mm | - | 33 W/m² | - |
| 1778108784 | 8.89° C | 59% | 1011.1 hPa | 0 mm | - | 35 W/m² | - |
| 1778108481 | 8.89° C | 59% | 1011.2 hPa | 0 mm | - | 44 W/m² | - |
| 1778108177 | 9.44° C | 58% | 1011 hPa | 0 mm | - | 102 W/m² | - |
| 1778107874 | 8.89° C | 58% | 1011.1 hPa | 0 mm | - | 118 W/m² | - |
| 1778107571 | 8.89° C | 58% | 1011.1 hPa | 0 mm | - | 47 W/m² | - |
| 1778107267 | 8.89° C | 58% | 1011 hPa | 0 mm | - | 41 W/m² | - |
| 1778106963 | 8.89° C | 58% | 1011 hPa | 0 mm | - | 103 W/m² | - |
| 1778106659 | 9.44° C | 58% | 1011 hPa | 0 mm | - | 124 W/m² | - |
* Rain latest hour (hover to see other rain measurements)
** Current wind speed in m/s (hover to see current wind gust speed)